Location: Newark
(43.0000°N, 1.6781°W)
Time: 10:51:57
(UTC+00:00)

S-56A Canister/Altair - All Passes

Search period start: 27 September 2022 00:00
Search period end: 07 October 2022 00:00
Orbit: 637 x 2496 km, 38.9° (Epoch: 26 September)

Date Brightness Start Highest point End Pass type
(mag) Time Alt. Az. Time Alt. Az. Time Alt. Az.
27 Sep - 00:34:50 10° S 00:40:26 15° SE 00:45:09 10° ESE visible
27 Sep - 02:35:53 10° SW 02:44:42 37° SSE 02:50:49 10° E visible
27 Sep - 04:40:54 10° WSW 04:48:42 58° S 04:54:03 10° E visible
27 Sep - 06:46:25 10° W 06:52:16 47° SSW 06:56:46 10° ESE daylight
27 Sep - 08:52:10 10° WSW 08:55:02 16° SW 08:57:43 10° S daylight
28 Sep - 00:02:21 10° S 00:07:32 14° SE 00:12:01 10° ESE night (unlit)
28 Sep - 02:02:36 10° SW 02:11:53 36° SSE 02:18:23 10° E visible
28 Sep - 04:07:34 10° WSW 04:16:03 58° S 04:21:44 10° E visible
28 Sep - 06:13:18 10° W 06:19:45 52° SSW 06:24:30 10° ESE daylight
28 Sep - 08:19:00 10° WSW 08:22:37 19° SSW 08:25:51 10° SSE daylight
28 Sep - 23:30:05 10° SSE 23:34:36 13° SE 23:38:37 10° ESE night (unlit)
29 Sep - 01:29:19 10° SSW 01:39:01 34° SSE 01:45:53 10° E visible
29 Sep - 03:34:09 10° WSW 03:43:20 58° S 03:49:24 10° E visible
29 Sep - 05:40:06 10° W 05:47:13 57° S 05:52:13 10° ESE daylight
29 Sep - 07:45:52 10° W 07:50:12 23° SSW 07:53:53 10° SSE daylight
29 Sep - 22:58:18 10° SSE 23:01:38 11° SE 23:04:43 10° ESE night (unlit)
30 Sep - 00:56:04 10° SSW 01:06:05 33° SSE 01:13:19 10° E visible
30 Sep - 03:00:42 10° WSW 03:10:33 57° SSE 03:17:02 10° E visible
30 Sep - 05:06:48 10° W 05:14:37 60° S 05:19:57 10° ESE visible
30 Sep - 07:12:42 10° W 07:17:47 28° SSW 07:21:51 10° SSE daylight
01 Oct - 00:22:51 10° SSW 00:33:07 31° SSE 00:40:42 10° E visible
01 Oct - 02:27:12 10° WSW 02:37:42 55° SSE 02:44:39 10° E visible
01 Oct - 04:33:25 10° W 04:41:58 63° S 04:47:39 10° ESE visible
01 Oct - 06:39:30 10° W 06:45:20 33° SSW 06:49:45 10° SE daylight
01 Oct - 23:49:40 10° SSW 00:00:06 29° SSE 00:08:00 10° E visible
02 Oct - 01:53:40 10° SW 02:04:48 54° SSE 02:12:14 10° E visible
02 Oct - 03:59:56 10° W 04:09:15 65° S 04:15:20 10° ESE visible
02 Oct - 06:06:14 10° W 06:12:50 39° SSW 06:17:39 10° SE daylight
02 Oct - 23:16:35 10° SSW 23:27:02 27° SE 23:35:11 10° E night (unlit)
03 Oct - 01:20:07 10° SW 01:31:51 52° SSE 01:39:46 10° E visible
03 Oct - 03:26:24 10° W 03:36:28 67° S 03:43:00 10° E visible
03 Oct - 05:32:54 10° W 05:40:18 45° SSW 05:45:29 10° SE visible
03 Oct - 07:40:38 10° WSW 07:42:45 12° SW 07:44:42 10° SSW daylight
03 Oct - 22:43:36 10° SSW 22:53:55 26° SE 23:02:16 10° E night (unlit)
04 Oct - 00:46:35 10° SW 00:58:49 51° SSE 01:07:14 10° E visible
04 Oct - 02:52:48 10° WSW 03:03:37 68° S 03:10:39 10° E visible
04 Oct - 04:59:28 10° W 05:07:42 50° SSW 05:13:17 10° SE visible
04 Oct - 07:06:40 10° WSW 07:10:21 16° SW 07:13:29 10° S daylight
04 Oct - 22:10:44 10° S 22:20:48 24° SE 22:29:12 10° E night (unlit)
05 Oct - 00:13:05 10° SW 00:25:43 49° SSE 00:34:40 10° E visible
05 Oct - 02:19:08 10° WSW 02:30:42 68° S 02:38:15 10° E visible
05 Oct - 04:25:59 10° W 04:35:02 56° SSW 04:41:03 10° ESE visible
05 Oct - 06:33:00 10° W 06:37:56 20° SW 06:41:52 10° S daylight
05 Oct - 21:38:01 10° S 21:47:40 21° SE 21:55:58 10° E night (unlit)
05 Oct - 23:39:38 10° SW 23:52:34 46° SSE 00:02:01 10° E visible
06 Oct - 01:45:27 10° WSW 01:57:42 68° S 02:05:48 10° E visible
06 Oct - 03:52:25 10° W 04:02:19 60° SSW 04:08:47 10° ESE visible
06 Oct - 05:59:24 10° W 06:05:28 25° SW 06:10:04 10° SSE daylight
06 Oct - 21:05:30 10° S 21:14:31 19° SE 21:22:32 10° E visible
06 Oct - 23:06:14 10° SW 23:19:22 44° SSE 23:29:16 10° E night (unlit)
